Regional Weather Roundup
Issued by NWS

Home | Current Version | Previous Version | Graphics & Text | Print | Product List | Glossary On
Versions: 1 2 3 4 5 6 7 8 9 10 11 12 13 14 15 16 17 18 19 20 21 22 23 24 25 26 27 28 29 30 31 32 33 34 35 36 37 38 39 40 41 42 43 44 45 46 47 48 49 50
000
ASUS43 KMKX 010521
RWRWI

WISCONSIN REGIONAL WEATHER ROUNDUP
NATIONAL WEATHER SERVICE MILWAUKEE/SULLIVAN WI
1200 AM CDT TUE SEP 01 2015

NOTE: "FAIR" INDICATES FEW OR NO CLOUDS BELOW 12,000 FEET WITH NO
SIGNIFICANT WEATHER AND/OR OBSTRUCTIONS TO VISIBILITY.

WIZ001-002-006>008-014>016-023>028-010600-
NORTHWEST WISCONSIN

CITY           SKY/WX    TMP DP  RH WIND       PRES   REMARKS
SUPERIOR ARPT  MOCLDY    69  68  97 CALM      29.86S
ASHLAND        PTCLDY    72  71  97 SW6       29.90R
HAYWARD        MOCLDY    72  69  90 SW6       29.93S
SIREN          PTCLDY    71  70  95 S5        29.91S FOG
CUMBERLAND     PTCLDY    70  68  94 S5        29.94R FOG
RICE LAKE      PTCLDY    70  67  92 CALM      29.95R FOG
CHETEK         PTCLDY   N/A N/A N/A CALM      29.94S HAZE
LADYSMITH      MOCLDY    72  69  92 S5        29.97S
EAU CLAIRE     PTCLDY    73  69  87 S10       29.94S
MENOMONIE      CLEAR     69  68  97 CALM      29.94S FOG
NEW RICHMOND   CLEAR     72  71  95 S8        29.93S
OSCEOLA        MOCLDY    72  72 100 CALM      29.94S
$$

WIZ003>005-009-010-017-018-010600-
NORTH CENTRAL WISCONSIN

CITY           SKY/WX    TMP DP  RH WIND       PRES   REMARKS
MANITOWISH WTR PTCLDY    68  68 100 S7        29.98S
ARBOR VITAE    CLEAR     72  70  93 S7        29.99R
WOODRUFF       CLEAR     72  70  93 S7        29.99R
RHINELANDER    CLEAR     69  66  90 SW8       30.01R
EAGLE RIVER    CLEAR     67  66  99 SW3       29.99S FOG
LAND O LAKES   CLEAR     67  66  96 SW3       30.00S FOG
PHILLIPS       PTCLDY    68  67  97 S7        29.97S
TOMAHAWK       PTCLDY    66  65  96 CALM      30.00S FOG
MEDFORD        CLOUDY    67  67  98 S7        30.00S FOG
MERRILL        CLEAR     64  64 100 CALM      30.00S FOG
$$

WIZ029-030-035-036-043>047-010600-
CENTRAL WISCONSIN

CITY           SKY/WX    TMP DP  RH WIND       PRES   REMARKS
WAUSAU         CLEAR     68  66  93 S5        29.99S FOG
MOSINEE        CLEAR     64  64 100 S6        30.01S FOG
MARSHFIELD     CLEAR     67  64  90 S7        30.00S FOG
STEVENS POINT  CLEAR     63  63  99 CALM      30.01S FOG
WAUPACA          N/A     66  65  97 CALM      30.01S FOG
WAUTOMA        FOG       64  64 100 CALM      30.01S VSB 3/4
WISC RAPIDS    LGT RAIN  70  65  84 S5        30.01S
CAMP DOUGLAS   CLEAR     69  69 100 S6        29.99R
$$

WIZ011>013-019>022-031-037>040-048>050-010600-
NORTHEAST WISCONSIN

CITY           SKY/WX    TMP DP  RH WIND       PRES   REMARKS
ANTIGO         CLEAR     67  66  98 SW7       30.02S
SHAWANO        CLEAR     70  67  92 CALM      29.99S FOG
OCONTO         CLEAR     64  64 100 CALM      29.99S
STURGEON BAY   CLEAR     64  63  94 S10       30.02S
GREEN BAY      CLEAR     69  66  90 S7        30.00S FOG
MANITOWOC      CLEAR     59  58  96 MISG      30.02S
APPLETON       CLEAR     68  68 100 S6        30.00S FOG
CLINTONVILLE   FOG       63  63 100 CALM      30.00S VSB<1/4
OSHKOSH        CLEAR     67  64  90 S9        30.01R FOG
$$

WIZ032>034-041-042-053>061-010600-
SOUTHWEST WISCONSIN

CITY           SKY/WX    TMP DP  RH WIND       PRES   REMARKS
LA CROSSE      PTCLDY    72  70  93 SW6       29.96S
SPARTA         CLEAR     67  65  92 CALM      29.98S
VIROQUA          N/A     71  71 100 SE6       30.00S
BOSCOBEL       CLEAR     70  68  93 CALM      29.98F FOG
PRAIRIE DU CHI CLEAR     73  69  87 E3        29.97S
PLATTEVILLE    CLEAR     72  70  93 SE6       30.01S
$$

WIZ056-057-062-063-064-067-068-010600-
SOUTH CENTRAL WISCONSIN

CITY           SKY/WX    TMP DP  RH WIND       PRES   REMARKS
REEDSBURG      CLEAR     68  67  96 CALM      30.00S
BARABOO/DELLS  CLEAR     70  65  85 S7        30.00F
LONE ROCK      CLEAR     68  66  93 E5        30.00S
MINERAL POINT  CLEAR     72  70  94 SE6       30.02S
MADISON        CLEAR     71  67  87 S3        30.01S
MIDDLETON      CLEAR     66  66  99 CALM      30.02S
WATERTOWN      CLEAR     68  68 100 CALM      30.02S FOG
MONROE         CLEAR     72  68  88 S8        30.03S
JANESVILLE     CLEAR     70  68  94 CALM      30.02S
$$

WIZ051-052-058>065-066-070>072-010600-
SOUTHEAST WISCONSIN

CITY           SKY/WX    TMP DP  RH WIND       PRES   REMARKS
MILWAUKEE      PTCLDY    69  65  86 S6        30.04R
WAUKESHA       CLEAR     66  64  94 S5        30.05S FOG
MILWAUKEE/TIMM CLEAR     68  63  83 S5        30.04S
RACINE         CLEAR     70  65  84 S6        30.06R
BURLINGTON     FOG       62  62  99 CALM      30.04S VSB 3/4
KENOSHA        CLEAR     67  65  93 CALM      30.04F
FOND DU LAC    CLEAR     69  67  93 S6        30.02S
SHEBOYGAN      CLEAR     61  61 100 S3        30.03S FOG
WEST BEND      CLEAR     64  63  94 CALM      30.03S FOG
JUNEAU         CLEAR     67  67  97 CALM      30.04S FOG
$$

LSZ147-162-010600-
LAKE SUPERIOR

STATION/POSITION TIME  TEMP    WIND        PRES    WAVE
                       AIR SEA DIR/SP/G            HT/PER
                 (UTC) (F)     (DEG/KT/KT) (MB)    (FT/S)
W MID LAKE BUOY  0450   62 55  210/ 14/ 16 1010.8F   1/ 3
DEVILS ISLAND    0500   74     200/ 11/ 15 1010.9F
PORT WING        0400   75     180/  9/ 13 1011.5F
SAXON HARBOR     0400   75     200/  6/ 12 1011.5
$$

LMZ867-665-643>646-010600-
LAKE MICHIGAN

STATION/POSITION TIME  TEMP    WIND        PRES    WAVE
                       AIR SEA DIR/SP/G            HT/PER
                 (UTC) (F)     (DEG/KT/KT) (MB)    (FT/S)
CHAMBERS ISLAND  0400   69     180/  5/  9 1015.6R
S GREEN BAY BUOY 0500   67 64  180/ 10/ 12 1017.0R
N MID LAKE BUOY  0450   65 65  210/ 14/ 16 1015.4R   3/ 4
NORTHPORT PIER   0400   64     160/  3/  6 1015.2F
KEWAUNEE LAKESHO 0400   50     180/  5/  7   N/A
SHEBOYGAN LAKESH 0500   61     190/  9/  9 1016.9S
PORT WASHINGTON  0400   58     190/  2/  3 1017.6F
ATWATER BUOY     0500   57 51  170/  4/  4 1018.3S
MILWAUKEE LAKESH 0410   60     120/  2/  2   N/A
S MID LAKE BUOY  0450   71 70  150/  6/  8 1017.0R   0
KENOSHA   LAKESH 0500   70     190/  8/ 10 1016.9S
$$

TC  - TEMPERATURE IN CELSIUS
VSB - VISIBILITY IN STATUTE MILES
WCI - WIND CHILL INDEX
HX  - HEAT INDEX




USA.gov is the U.S. government's official web portal to all federal, state and local government web resources and services.